Regional Weather Roundup
Issued by NWS

Home | Current Version | Previous Version | Graphics & Text | Print | Product List | Glossary On
Versions: 1 2 3 4 5 6 7 8 9 10 11 12 13 14 15 16 17 18 19 20 21 22 23 24 25 26 27 28 29 30 31 32 33 34 35 36 37 38 39 40 41 42 43 44 45 46 47 48 49 50
000
ASUS45 KSLC 200110
RWRUT

UTAH REGIONAL WEATHER ROUNDUP
NATIONAL WEATHER SERVICE SALT LAKE CITY UT
700 PM MDT FRI SEP 19 2014

UTZ001>011-023>025-200200-

NORTHERN UTAH

CITY           SKY/WX    TMP DP  RH WIND       PRES   REMARKS
HILL AFB       CLEAR     78  45  30 NW5       30.06S
LOGAN          CLEAR     77  52  41 NW3       30.05R
OGDEN          CLEAR     79  45  29 NW6       30.03S
PROVO AIRPORT  PTCLDY    75  57  53 W12       30.03
SALT LAKE CITY PTCLDY    79  47  32 NW9       30.02R
VERNAL         MOCLDY    75  53  46 NE3       30.05R
WENDOVER       CLEAR     81  41  24 E9        30.03S
HEBER CITY     PTCLDY    75  50  41 W6        30.08R
WEST JORDAN    CLEAR     75  48  38 NW7       30.05S

$$

UTZ012>022-026-027-200200-

SOUTHERN UTAH

CITY           SKY/WX    TMP DP  RH WIND       PRES   REMARKS
BRYCE CANYON   CLOUDY    70  45  40 S5        30.22R
CEDAR CITY     CLEAR     80  42  25 N3        30.05S
MILFORD        CLEAR     84  43  23 N12       30.01R
MOAB/CYNLANDS  CLEAR     87  38  17 W5        29.93R
PRICE          MOCLDY    80  42  25 NW5       30.08S
ST GEORGE      PTCLDY    91  50  24 W13       29.87S
KANAB            N/A     84  46  26 S5        30.03R

$$

REGIONAL REPORTS     COLORADO/ARIZONA

CITY           SKY/WX    TMP DP  RH WIND       PRES   REMARKS
CRAIG, CO      MOCLDY    72  48  42 W3        30.10R
GRAND JUNCTION PTCLDY    82  45  27 W5        29.96S
RIFLE          PTCLDY    79  44  28 W6        30.01S
MONTROSE       PTCLDY    80  46  30 NW5       30.06R
CORTEZ         CLEAR     79  47  32 NW5       30.05R
PAGE, AZ       PTCLDY    90  46  21 NE7       29.94S
GRAND CANYON   CLOUDY    68  54  60 VRB3      30.16S
KINGMAN        CLEAR     86  42  21 SW14      29.93S
FLAGSTAFF        N/A     67  56  67 W3        30.19S

$$

REGIONAL REPORTS    NEVADA/IDAHO/WYOMING

CITY           SKY/WX    TMP DP  RH WIND       PRES   REMARKS
LAS VEGAS, NV  PTCLDY    95  30  10 S13       29.77S
ELY            PTCLDY    78  33  19 S7        30.10S
ELKO           CLEAR     82  37  20 NE7       30.04F
POCATELLO, ID  CLEAR     75  40  28 SW12      30.07R
BURLEY         CLEAR     71  47  42 W8        30.04S
EVANSTON, WY   CLEAR     71  38  29 N12       30.21R
ROCK SPRINGS   CLEAR     71  34  25 W17       30.16R

$$



USA.gov is the U.S. government's official web portal to all federal, state and local government web resources and services.